Total_Precipitation_Accumulation
0.03 0.03 0.05 0.03 0.00 0.00 0.00 0.00 0.00 0.00 0.02 0.03 0.07 0.11 0.21 0.24 0.17 0.03 0.00 0.00 0.00 0.00 0.00 0.00 0.00 0.00 0.00 0.00 0.00 0.00 0.00 0.00 0.00 0.00 0.00 0.00 0.00 0.00 0.00 0.00 0.00 0.00 0.00 0.00 0.00
0.04 0.04 0.06 0.06 0.01 0.00 0.00 0.00 0.00 0.00 0.00 0.00 0.00 0.02 0.08 0.14 0.18 0.12 0.00 0.00 0.02 0.00 0.00 0.00 0.00 0.01 0.01 0.00 0.00 0.00 0.00 0.00 0.00 0.00 0.00 0.00 0.00 0.00 0.00 0.00 0.00 0.00 0.00 0.00 0.00
0.05 0.05 0.07 0.06 0.06 0.01 0.00 0.00 0.00 0.00 0.00 0.00 0.00 0.00 0.04 0.03 0.05 0.03 0.00 0.05 0.15 0.16 0.01 0.00 0.00 0.02 0.03 0.01 0.00 0.00 0.00 0.00 0.00 0.00 0.00 0.00 0.00 0.00 0.00 0.00 0.00 0.00 0.00 0.00 0.00
0.07 0.08 0.08 0.07 0.09 0.04 0.00 0.00 0.00 0.00 0.00 0.00 0.00 0.01 0.02 0.03 0.01 0.00 0.00 0.00 0.04 0.17 0.01 0.00 0.00 0.02 0.02 0.02 0.00 0.00 0.00 0.00 0.00 0.00 0.00 0.00 0.00 0.00 0.00 0.00 0.00 0.00 0.00 0.00 0.00
0.11 0.11 0.11 0.09 0.08 0.07 0.01 0.00 0.00 0.00 0.00 0.00 0.02 0.02 0.02 0.03 0.01 0.00 0.00 0.00 0.00 0.03 0.02 0.00 0.00 0.01 0.01 0.01 0.02 0.00 0.00 0.00 0.00 0.00 0.00 0.00 0.00 0.00 0.00 0.00 0.00 0.00 0.00 0.00 0.00
0.11 0.10 0.09 0.09 0.08 0.08 0.03 0.00 0.00 0.00 0.00 0.00 0.04 0.04 0.02 0.01 0.00 0.00 0.00 0.00 0.00 0.01 0.02 0.03 0.01 0.00 0.01 0.00 0.02 0.00 0.00 0.00 0.00 0.00 0.00 0.00 0.00 0.00 0.00 0.00 0.00 0.00 0.00 0.00 0.00
0.13 0.12 0.11 0.11 0.11 0.10 0.07 0.01 0.00 0.00 0.00 0.01 0.05 0.03 0.03 0.00 0.00 0.00 0.00 0.00 0.00 0.00 0.01 0.02 0.03 0.10 0.06 0.01 0.00 0.00 0.01 0.00 0.00 0.00 0.00 0.00 0.00 0.00 0.00 0.00 0.00 0.00 0.00 0.00 0.00
0.17 0.15 0.13 0.14 0.14 0.14 0.12 0.04 0.02 0.02 0.00 0.00 0.02 0.04 0.03 0.00 0.00 0.00 0.00 0.00 0.00 0.00 0.01 0.00 0.01 0.05 0.08 0.05 0.02 0.02 0.03 0.01 0.00 0.00 0.00 0.01 0.00 0.00 0.00 0.00 0.00 0.00 0.00 0.00 0.00
0.20 0.18 0.18 0.18 0.18 0.19 0.15 0.13 0.08 0.07 0.05 0.04 0.00 0.03 0.01 0.00 0.00 0.00 0.00 0.00 0.00 0.00 0.00 0.00 0.02 0.05 0.08 0.10 0.09 0.06 0.02 0.01 0.00 0.00 0.00 0.00 0.00 0.00 0.00 0.00 0.00 0.00 0.00 0.00 0.00
0.22 0.20 0.18 0.17 0.20 0.23 0.30 0.29 0.17 0.10 0.08 0.12 0.03 0.03 0.00 0.00 0.00 0.00 0.00 0.00 0.00 0.01 0.01 0.02 0.04 0.06 0.08 0.16 0.08 0.02 0.01 0.00 0.00 0.00 0.00 0.00 0.00 0.00 0.00 0.00 0.00 0.00 0.00 0.00 0.00
0.20 0.21 0.24 0.23 0.26 0.34 0.70 0.55 0.10 0.05 0.08 0.02 0.02 0.00 0.00 0.00 0.00 0.00 0.00 0.00 0.00 0.03 0.04 0.03 0.07 0.04 0.04 0.07 0.02 0.01 0.02 0.01 0.00 0.00 0.00 0.00 0.00 0.00 0.00 0.00 0.00 0.00 0.00 0.00 0.00
0.21 0.22 0.21 0.23 0.28 0.61 0.79 0.41 0.02 0.00 0.03 0.01 0.00 0.00 0.00 0.00 0.00 0.00 0.00 0.00 0.00 0.01 0.03 0.13 0.08 0.00 0.02 0.04 0.07 0.04 0.05 0.04 0.01 0.00 0.01 0.00 0.00 0.00 0.00 0.00 0.00 0.00 0.00 0.00 0.00
0.23 0.22 0.28 0.35 0.44 0.86 0.63 0.28 0.03 0.06 0.26 0.14 0.01 0.01 0.00 0.03 0.01 0.02 0.00 0.00 0.00 0.01 0.06 0.23 0.08 0.02 0.08 0.10 0.12 0.13 0.04 0.03 0.03 0.01 0.01 0.01 0.00 0.00 0.00 0.00 0.00 0.00 0.00 0.00 0.00
0.34 0.34 0.34 0.47 0.81 0.69 0.64 0.27 0.18 0.31 0.70 0.15 0.01 0.02 0.06 0.13 0.10 0.00 0.00 0.01 0.03 0.01 0.08 0.19 0.04 0.09 0.15 0.20 0.12 0.15 0.07 0.01 0.05 0.10 0.07 0.04 0.02 0.00 0.00 0.00 0.00 0.00 0.00 0.00 0.00
0.60 0.56 0.54 0.64 0.95 0.62 0.54 0.33 0.30 0.48 0.50 0.02 0.02 0.01 0.04 0.12 0.08 0.02 0.00 0.11 0.09 0.09 0.22 0.25 0.04 0.08 0.18 0.25 0.08 0.16 0.10 0.03 0.09 0.16 0.17 0.11 0.08 0.01 0.00 0.00 0.00 0.00 0.00 0.00 0.00
0.66 0.63 0.77 0.80 0.81 0.63 0.41 0.57 0.58 0.43 0.19 0.02 0.02 0.05 0.11 0.08 0.07 0.10 0.04 0.10 0.20 0.42 0.42 0.12 0.04 0.08 0.10 0.13 0.10 0.17 0.20 0.19 0.15 0.40 0.42 0.11 0.14 0.07 0.00 0.00 0.00 0.00 0.00 0.00 0.00
0.64 0.67 1.00 0.83 0.63 0.62 0.82 0.84 0.78 0.29 0.03 0.12 0.09 0.14 0.13 0.08 0.07 0.12 0.19 0.20 0.40 0.62 0.62 0.43 0.32 0.08 0.12 0.37 0.37 0.55 0.71 0.81 0.59 0.58 0.42 0.07 0.06 0.07 0.00 0.00 0.00 0.00 0.00 0.00 0.00
0.87 0.92 1.13 0.96 0.78 0.75 1.09 0.83 0.42 0.06 0.06 0.14 0.15 0.18 0.19 0.05 0.06 0.07 0.25 0.24 0.14 0.31 0.50 0.35 0.43 0.18 0.21 0.61 0.70 0.53 0.78 0.82 0.34 0.15 0.12 0.05 0.11 0.02 0.00 0.00 0.00 0.00 0.00 0.00 0.00
0.89 1.36 2.06 1.18 1.14 1.19 1.14 0.78 0.16 0.11 0.11 0.15 0.26 0.17 0.07 0.03 0.04 0.08 0.11 0.09 0.03 0.09 0.41 0.33 0.35 0.15 0.13 0.33 0.50 0.54 0.82 0.48 0.47 0.24 0.25 0.10 0.01 0.00 0.00 0.00 0.00 0.00 0.00 0.00 0.00
1.13 1.43 1.95 1.27 1.10 1.88 1.48 0.52 0.08 0.11 0.19 0.26 0.19 0.06 0.02 0.01 0.06 0.06 0.04 0.00 0.00 0.01 0.16 0.33 0.53 0.33 0.38 0.43 0.58 0.56 0.35 0.50 0.98 0.54 0.21 0.09 0.03 0.00 0.00 0.00 0.00 0.00 0.00 0.00 0.00
0.98 1.69 1.25 1.56 1.72 2.42 1.47 0.32 0.10 0.10 0.22 0.30 0.10 0.09 0.04 0.01 0.01 0.01 0.01 0.00 0.00 0.00 0.12 0.48 0.70 0.47 0.64 0.69 0.47 0.71 0.83 0.48 0.42 0.23 0.27 0.06 0.02 0.00 0.00 0.00 0.00 0.00 0.00 0.00 0.00
1.10 1.26 1.22 1.85 2.62 1.72 0.64 0.24 0.15 0.15 0.23 0.28 0.15 0.05 0.05 0.02 0.01 0.01 0.00 0.00 0.00 0.01 0.11 0.40 0.77 0.60 0.31 0.29 0.09 0.34 0.36 0.30 0.55 0.24 0.29 0.22 0.04 0.00 0.00 0.00 0.00 0.01 0.02 0.01 0.00
1.22 1.40 1.93 1.16 1.04 0.55 0.37 0.25 0.23 0.19 0.24 0.27 0.10 0.03 0.02 0.04 0.04 0.00 0.00 0.00 0.00 0.01 0.11 0.42 0.90 0.66 0.31 0.70 0.40 0.56 0.37 0.51 0.72 0.67 0.60 0.34 0.07 0.00 0.01 0.00 0.00 0.00 0.01 0.01 0.01
1.16 1.37 2.82 1.89 0.47 0.17 0.26 0.30 0.26 0.14 0.21 0.23 0.13 0.06 0.05 0.05 0.02 0.01 0.00 0.00 0.00 0.00 0.06 0.38 0.49 0.54 0.34 0.57 0.63 0.44 0.28 0.57 1.18 1.16 0.34 0.29 0.05 0.01 0.02 0.02 0.01 0.00 0.01 0.03 0.02
0.84 0.54 0.64 0.65 0.31 0.11 0.35 0.33 0.34 0.24 0.19 0.22 0.15 0.06 0.05 0.05 0.02 0.02 0.00 0.00 0.00 0.00 0.07 0.42 0.69 0.78 0.36 0.13 0.47 0.50 0.39 0.54 0.99 0.64 0.63 0.23 0.15 0.04 0.03 0.02 0.02 0.00 0.01 0.02 0.03
0.71 0.31 0.13 0.06 0.03 0.08 0.41 0.42 0.36 0.31 0.24 0.17 0.08 0.03 0.06 0.03 0.01 0.00 0.00 0.01 0.01 0.01 0.06 0.33 0.86 0.93 0.57 0.21 0.25 0.58 0.56 0.67 0.63 0.53 0.61 0.26 0.22 0.04 0.01 0.01 0.00 0.00 0.01 0.04 0.03
0.70 0.33 0.15 0.12 0.05 0.09 0.29 0.39 0.31 0.29 0.14 0.07 0.07 0.12 0.09 0.02 0.00 0.00 0.00 0.00 0.04 0.04 0.17 0.29 0.55 0.81 0.47 0.37 0.37 0.78 0.73 0.57 0.35 0.33 0.41 0.38 0.11 0.04 0.07 0.05 0.03 0.02 0.04 0.05 0.04